536  
ASUS43 KFSD 251210  
RWRSD  
 
WEATHER ROUNDUP FOR SOUTH DAKOTA  
NATIONAL WEATHER SERVICE SIOUX FALLS SD  
700 AM CDT THU JUL 25 2024  
 
NOTE: "FAIR" INDICATES FEW OR NO CLOUDS BELOW 12,000 FEET WITH NO  
SIGNIFICANT WEATHER AND/OR S TO VISIBILITY
.  
 
 
SDZ001>005-009-010-012>017-251300-  
NORTHWEST AND NORTH CENTRAL SOUTH DAKOTA  
 
CITY SKY/WX TMP DP RH WIND PRES REMARKS
 
BUFFALO N/A 72 56 57 S10 30.01F TC 22  
FAITH N/A 65 63 93 S13 30.05S TC 18  

 
 
SDZ012>016-024>037-041>051-057-063-072>074-251300-  
SOUTHWEST AND SOUTH CENTRAL SOUTH DAKOTA  
 
CITY SKY/WX TMP DP RH WIND PRES REMARKS
 
RAPID CTY ARPT CLEAR 61 52 72 CALM 30.10S TC 16  
PIERRE CLOUDY 71 70 96 SE13 30.05R FOG TC 22  
CUSTER CLEAR 56 46 69 NW5 30.29S HAZE TC 13  
ELLSWORTH AFB CLEAR 71 48 43 SW3 30.07S TC 22  
PHILIP CLEAR 60 59 96 CALM 30.05S FOG TC 16  
PINE RIDGE CLEAR 58 50 75 CALM 30.14R HAZE TC 14  
SPEARFISH CLEAR 70 41 35 E9 30.14S TC 21  
WINNER CLEAR 69 67 93 SE12 30.09F FOG TC 21  

 
 
SDZ004>011-016>023-039-040-251300-  
NORTHEAST SOUTH DAKOTA  
 
CITY SKY/WX TMP DP RH WIND PRES REMARKS
 
ABERDEEN CLEAR 68 64 87 SE9 30.11S FOG TC 20  
WATERTOWN CLEAR 64 61 90 S9 30.16S TC 18  
BROOKINGS CLEAR 63 61 93 SE9 30.18S TC 17  
SISSETON N/A 63 62 97 S8 30.15S TC 17  

 
 
SDZ017-020-022-023-036>040-048>070-251300-  
SOUTHEAST SOUTH DAKOTA  
 
CITY SKY/WX TMP DP RH WIND PRES REMARKS
 
SIOUX FALLS PTCLDY 66 63 90 E5 30.17S TC 19  
HURON CLEAR 67 65 93 SE9 30.12R FOG TC 19  
CHAMBERLAIN CLOUDY 70 70 100 SE12 30.10S FOG TC 21  
MADISON N/A 63 63 100 SE9 30.16S TC 17  
MITCHELL CLEAR 67 65 93 SE10 30.12F FOG TC 19  
YANKTON CLOUDY 68 68 100 E6 30.15R FOG TC 20  

 
 
ABBREVIATIONS USED IN REMARKS  
TC - TEMPERATURE IN CELSIUS  
WCI - WIND CHILL INDEX  
HX - HEAT INDEX  
VSB - VISIBILITY  
 
 
 
CLICK HERE TO GO TO PREVIOUS BULLETINS.

The Nexlab SD Page Main Text Page